Tracking 28126 objects as of 1-Oct-2023
HD Live streaming from Space Station
objects crossing your sky now

ATLAS 5 CENTAUR DEB

Track ATLAS 5 CENTAUR DEB now!


NORAD ID: 49369
Int'l Code: 2018-079FW
Perigee: 9,037.8 km
Apogee: 35,965.6 km
Inclination: 10.9 °
Period: 813.7 minutes
Semi major axis: 28872 km
RCS: Unknown
Launch date: October 17, 2018
Source: United States (US)
Launch site: AIR FORCE EASTERN TEST RANGE (AFETR)

Note: This is SATELLITE DEBRIS
Your satellite tracking list
Your tracking list is empty




NASA's NSSDC Master Catalog

Two Line Element Set (TLE):
1 49369U 18079FW  23267.63823634 -.00000018  00000-0  00000+0 0  9990
2 49369  10.8972 137.2687 4663179 116.1916 298.5025  1.76958711 13487
Source of the keplerian elements: AFSPC